STARLINK-35595, 66101

Orbit data source: Space-Track

STARLINK-35595, 66101 is a payload satellite owned by SpaceX/Seattle (US) in LEO that was launched on Sun, 19 Oct 2025 UTC via an FALCON 9 launch vehicle from the Air Force Western Test Range (AFWTR). Payload-class satellites include a variety of spacecraft equipped with specific instruments for various scientific and technological missions. These include communications satellites like Starlink; space stations such as the ISS; scientific satellites like the Hubble; Earth observation satellites from companies like Planet Labs, Umbra, and HawkEye 360; GPS; miniature CubeSats for education and research; and military/defense satellites.

Loading next visibility...
Identifier
66101, 2025-236R
Orbit
LEO
Country
Flag of USUS
Related business
Manufacturer
SpaceX/Seattle
Mission
Operational Commercial Communications
Bus & Motor
STARLINK V2MO, Unknown motor
Mass
575 kg wet, ~530 kg dry
Launch date (UTC)
2025-10-19 (8 months ago)
Launch vehicle
FALCON 9
Launch site
Air Force Western Test Range (AFWTR)
Object type
Payload
Rocket body
Debris
Shape & HBR
Box + 2 Pan, 17.7 m
Radar Cross Section
36.964 m², Large (>1 m²)

Expand to show TLE details & history
Last TLE update: 11 hours ago

TLE from 11 hours ago
0 STARLINK-35595
1 66101U 25236R   26171.45155008  .00013882  00000-0  42113-3 0  9993
2 66101  53.1615 346.1498 0001644  87.5890 272.5301 15.34406828 38624
Epoch: 2026-06-20T10:50Z
TLE epoch observation values (Epoch: 2026-06-20T10:50:13.926Z)
Latitude
-0.00003°
Longitude
-85.07423°
Altitude
463.535 km
Speed
7.636 km/s
True Right ascension
23h 04m 35s
True Declination
0° 00' 00"
Sunlit
Object was in daylight at epoch
Visualization orbit readout
Latitude
Unknown
Longitude
Unknown
Altitude
Unknown
Speed
Unknown
Apparent Right ascension
Unknown
Apparent Declination
Unknown
Sunlit
N/A
Visualization observer readout
Local Sidereal Time
08:41:34
Azimuth
Unknown
Elevation
Unknown
Doppler factor
Unknown
Orbital elements
Apogee altitude
464.064 km
Perigee altitude
461.815 km
Semi-major axis
6,841.077 km
Eccentricity
0.00016
Inclination
53.1615°
RAAN
346.1498°
Arg. of periapsis
87.589°
True anomaly
272.51128°
Mean anomaly
272.5301°
Eccentric anomaly
272.52069°
Mean motion
3.8358 °/min
Orbital period
93.85 mins
BSTAR
0.00042113
Loading maneuver chart data...
Computing Atmospheric mass density...
Loading historical data...
Loading historical data...
Loading historical data...
Loading historical data...
Loading historical data...
Loading historical data...
Loading historical data...

Documentation

Showing up to 5 results
|